When you browse on this site, cookies collect data to enhance your experience and personalize the content and advertising you see.
Visit our Privacy Policy to learn more. By continuing to use the site, you agree to this use of cookies and data.
  • In Hungary
  • List of Countries
  • For 7 days
  • Water Temperature
  • Satellite Maps
  • Weather Map
  • News
  • Weather Widgets
  • user-avatar
    Login

    Hourly Weather Aksyutivka

    Today, 22 July, Monday

    Time Temperature Precipitation Wind Pressure Humidity
    00:00 +20°C° 0 mm 1 mps 747 mmHg 73%
    01:00 +19°C° 0 mm 1 mps 748 mmHg 74%
    02:00 +19°C° 0 mm 1 mps 748 mmHg 72%
    03:00 +19°C° 0 mm 1 mps 748 mmHg 72%
    04:00 +19°C° 0 mm 1 mps 748 mmHg 73%
    05:00 +19°C° 0 mm 1 mps 748 mmHg 74%
    06:00 +21°C° 0 mm 1 mps 748 mmHg 68%
    07:00 +23°C° 0 mm 1 mps 748 mmHg 62%
    08:00 +26°C° 0 mm 1 mps 748 mmHg 55%
    09:00 +27°C° 0 mm 1 mps 747 mmHg 49%
    10:00 +29°C° 0 mm 1 mps 747 mmHg 44%
    11:00 +28°C° 0 mm 0 mps 747 mmHg 38%
    12:00 +30°C° 0 mm 1 mps 747 mmHg 36%
    13:00 +31°C° 0 mm 1 mps 747 mmHg 34%
    14:00 +31°C° 0 mm 1 mps 747 mmHg 32%
    15:00 +31°C° 0 mm 1 mps 746 mmHg 34%
    16:00 +30°C° 0 mm 1 mps 746 mmHg 36%
    17:00 +30°C° 0 mm 1 mps 746 mmHg 38%
    18:00 +28°C° 0 mm 1 mps 746 mmHg 40%
    19:00 +26°C° 0 mm 1 mps 745 mmHg 43%
    20:00 +24°C° 0 mm 2 mps 745 mmHg 45%
    21:00 +24°C° 0 mm 2 mps 745 mmHg 47%
    22:00 +23°C° 0 mm 2 mps 745 mmHg 49%
    23:00 +21°C° 0 mm 3 mps 745 mmHg 51%

    Tomorrow, 23 July, Tuesday

    Time Temperature Precipitation Wind Pressure Humidity
    00:00 +21°C° 0 mm 2 mps 745 mmHg 52%
    01:00 +22°C° 0 mm 1 mps 744 mmHg 52%
    02:00 +22°C° 0 mm 1 mps 744 mmHg 53%
    03:00 +22°C° 0 mm 1 mps 744 mmHg 57%
    04:00 +22°C° 0 mm 1 mps 744 mmHg 62%
    05:00 +21°C° 0 mm 1 mps 743 mmHg 66%
    06:00 +22°C° 0.3 mm 1 mps 743 mmHg 68%
    07:00 +23°C° 0.3 mm 1 mps 743 mmHg 70%
    08:00 +23°C° 0.3 mm 1 mps 743 mmHg 72%
    09:00 +25°C° 0.3 mm 2 mps 743 mmHg 68%
    10:00 +26°C° 0.3 mm 2 mps 743 mmHg 64%
    11:00 +27°C° 0.3 mm 3 mps 743 mmHg 60%
    12:00 +27°C° 0.2 mm 3 mps 743 mmHg 58%
    13:00 +27°C° 0.2 mm 3 mps 743 mmHg 57%
    14:00 +27°C° 0.2 mm 3 mps 742 mmHg 55%
    15:00 +27°C° 0.2 mm 2 mps 742 mmHg 57%
    16:00 +26°C° 0.2 mm 2 mps 742 mmHg 59%
    17:00 +26°C° 0.2 mm 2 mps 743 mmHg 61%
    18:00 +24°C° 1.2 mm 2 mps 742 mmHg 67%
    19:00 +23°C° 1.2 mm 2 mps 742 mmHg 73%
    20:00 +20°C° 1.2 mm 2 mps 742 mmHg 79%
    21:00 +20°C° 0.2 mm 2 mps 742 mmHg 81%
    22:00 +21°C° 0.2 mm 1 mps 742 mmHg 83%
    23:00 +20°C° 0.2 mm 1 mps 742 mmHg 85%

    Day after tomorrow, 24 July, Wednesday

    Time Temperature Precipitation Wind Pressure Humidity
    00:00 +20°C° 0.4 mm 1 mps 742 mmHg 86%
    01:00 +20°C° 0.4 mm 1 mps 742 mmHg 87%
    02:00 +19°C° 0.4 mm 1 mps 742 mmHg 89%
    03:00 +19°C° 0.8 mm 1 mps 741 mmHg 88%
    04:00 +19°C° 0.8 mm 1 mps 741 mmHg 88%
    05:00 +19°C° 0.8 mm 1 mps 741 mmHg 88%
    06:00 +19°C° 0.4 mm 2 mps 741 mmHg 85%
    07:00 +19°C° 0.4 mm 2 mps 741 mmHg 81%
    08:00 +20°C° 0.4 mm 3 mps 741 mmHg 78%
    09:00 +21°C° 0.6 mm 3 mps 741 mmHg 74%
    10:00 +21°C° 0.6 mm 3 mps 741 mmHg 71%
    11:00 +22°C° 0.6 mm 3 mps 741 mmHg 68%
    12:00 +24°C° 0.5 mm 2 mps 741 mmHg 63%
    13:00 +25°C° 0.5 mm 2 mps 741 mmHg 59%
    14:00 +26°C° 0.5 mm 1 mps 740 mmHg 54%
    15:00 +25°C° 0.1 mm 1 mps 740 mmHg 54%
    16:00 +25°C° 0.1 mm 1 mps 740 mmHg 54%
    17:00 +25°C° 0.1 mm 1 mps 740 mmHg 54%
    18:00 +24°C° 0.1 mm 1 mps 740 mmHg 60%
    19:00 +22°C° 0.1 mm 1 mps 740 mmHg 67%
    20:00 +20°C° 0.1 mm 1 mps 740 mmHg 73%
    21:00 +20°C° 0 mm 1 mps 740 mmHg 76%
    22:00 +19°C° 0 mm 1 mps 740 mmHg 80%
    23:00 +19°C° 0 mm 1 mps 740 mmHg 83%

    25 July, Thursday

    Time Temperature Precipitation Wind Pressure Humidity
    00:00 +18°C° 0.1 mm 1 mps 740 mmHg 84%
    01:00 +18°C° 0.1 mm 1 mps 740 mmHg 86%
    02:00 +18°C° 0.1 mm 1 mps 740 mmHg 87%
    03:00 +18°C° 0.2 mm 1 mps 740 mmHg 88%
    04:00 +18°C° 0.2 mm 1 mps 740 mmHg 88%
    05:00 +18°C° 0.2 mm 1 mps 740 mmHg 88%
    06:00 +19°C° 0.2 mm 1 mps 740 mmHg 83%
    07:00 +20°C° 0.2 mm 2 mps 741 mmHg 77%
    08:00 +21°C° 0.2 mm 2 mps 741 mmHg 72%
    09:00 +23°C° 1.9 mm 2 mps 740 mmHg 69%
    10:00 +24°C° 1.9 mm 2 mps 740 mmHg 66%
    11:00 +25°C° 1.9 mm 2 mps 740 mmHg 63%
    12:00 +25°C° 2.6 mm 2 mps 740 mmHg 63%
    13:00 +25°C° 2.6 mm 2 mps 740 mmHg 63%
    14:00 +25°C° 2.6 mm 1 mps 740 mmHg 63%
    15:00 +25°C° 0.4 mm 2 mps 740 mmHg 66%
    16:00 +24°C° 0.4 mm 2 mps 740 mmHg 69%
    17:00 +24°C° 0.4 mm 2 mps 740 mmHg 71%
    18:00 +23°C° 0.3 mm 2 mps 740 mmHg 75%
    19:00 +21°C° 0.3 mm 2 mps 740 mmHg 78%
    20:00 +20°C° 0.3 mm 3 mps 740 mmHg 81%
    21:00 +19°C° 0.8 mm 2 mps 740 mmHg 83%
    22:00 +19°C° 0.8 mm 2 mps 740 mmHg 85%
    23:00 +18°C° 0.8 mm 2 mps 740 mmHg 86%

    26 July, Friday

    Time Temperature Precipitation Wind Pressure Humidity
    00:00 +18°C° 0.4 mm 2 mps 739 mmHg 87%
    01:00 +19°C° 0.4 mm 1 mps 739 mmHg 88%
    02:00 +18°C° 0.4 mm 1 mps 739 mmHg 89%
    03:00 +17°C° 0.4 mm 2 mps 739 mmHg 90%
    04:00 +17°C° 0.4 mm 2 mps 739 mmHg 90%
    05:00 +17°C° 0.4 mm 2 mps 739 mmHg 91%
    06:00 +19°C° 0 mm 2 mps 739 mmHg 87%
    07:00 +20°C° 0 mm 2 mps 739 mmHg 83%
    08:00 +21°C° 0 mm 3 mps 739 mmHg 78%
    09:00 +24°C° 1.1 mm 3 mps 739 mmHg 73%
    10:00 +25°C° 1.1 mm 3 mps 739 mmHg 67%
    11:00 +26°C° 1.1 mm 3 mps 739 mmHg 61%
    12:00 +26°C° 1.2 mm 3 mps 739 mmHg 59%
    13:00 +27°C° 1.2 mm 3 mps 738 mmHg 58%
    14:00 +27°C° 1.2 mm 3 mps 738 mmHg 56%
    15:00 +26°C° 1.3 mm 3 mps 738 mmHg 61%
    16:00 +26°C° 1.3 mm 3 mps 738 mmHg 65%
    17:00 +25°C° 1.3 mm 2 mps 738 mmHg 70%
    18:00 +24°C° 0.3 mm 2 mps 738 mmHg 74%
    19:00 +23°C° 0.3 mm 2 mps 738 mmHg 78%
    20:00 +21°C° 0.3 mm 2 mps 739 mmHg 82%
    21:00 +20°C° 0.3 mm 2 mps 738 mmHg 84%
    22:00 +19°C° 0.3 mm 2 mps 738 mmHg 86%
    23:00 +19°C° 0.3 mm 2 mps 738 mmHg 88%

    27 July, Saturday

    Time Temperature Precipitation Wind Pressure Humidity
    00:00 +18°C° 0.1 mm 2 mps 738 mmHg 89%
    01:00 +18°C° 0.1 mm 2 mps 738 mmHg 90%
    02:00 +17°C° 0.1 mm 3 mps 738 mmHg 92%
    03:00 +17°C° 0.1 mm 3 mps 738 mmHg 92%
    04:00 +17°C° 0.1 mm 3 mps 738 mmHg 93%
    05:00 +17°C° 0.1 mm 3 mps 738 mmHg 94%
    06:00 +19°C° 0 mm 3 mps 738 mmHg 89%
    07:00 +20°C° 0 mm 3 mps 739 mmHg 85%
    08:00 +21°C° 0 mm 3 mps 739 mmHg 80%
    09:00 +24°C° 0.6 mm 3 mps 739 mmHg 73%
    10:00 +25°C° 0.6 mm 3 mps 739 mmHg 66%
    11:00 +26°C° 0.6 mm 3 mps 739 mmHg 59%
    12:00 +27°C° 0.2 mm 3 mps 739 mmHg 58%
    13:00 +27°C° 0.2 mm 3 mps 739 mmHg 57%
    14:00 +27°C° 0.2 mm 4 mps 738 mmHg 55%
    15:00 +27°C° 0 mm 4 mps 738 mmHg 58%
    16:00 +27°C° 0 mm 4 mps 738 mmHg 61%
    17:00 +26°C° 0 mm 4 mps 738 mmHg 63%
    18:00 +25°C° 0.2 mm 3 mps 739 mmHg 69%
    19:00 +22°C° 0.2 mm 3 mps 739 mmHg 76%
    20:00 +21°C° 0.2 mm 3 mps 739 mmHg 82%
    21:00 +20°C° 0.1 mm 3 mps 739 mmHg 84%
    22:00 +20°C° 0.1 mm 2 mps 739 mmHg 85%
    23:00 +19°C° 0.1 mm 2 mps 739 mmHg 87%
    Show more